Weather in Romanovskaya

Russia / Rostov Oblast     47°32′28″N   42°01′19″E
temp.,
°C
wind,
m/s
gust,
m/s
humid.,
%
clouds,
%
prec.,
mm/h
press.,
hPa
HPBL,
m
31 july, sat
sat3100:00+25ssw222819 0.0 100914
03:00+22sse22341 0.0 100918
06:00+23s22385 0.0 100923
09:00+31s22250 0.0 1009615
12:00+35ssw44202 0.0 10093217
15:00+36ese121819 0.0 10083558
18:00+32ne45255 0.0 1008576
21:00+27sse33240 0.0 100918
1 august, sun
sun100:00+25se22295 0.0 100911
03:00+24e22324 0.0 101011
06:00+25e22325 0.0 101132
09:00+32e34215 0.0 1011585
12:00+36ene55175 0.0 10102404
15:00+35ne541817 0.0 10101432
18:00+32ene472593 0.0 1009358
21:00+30e453590 0.0 101089
2 august, mon
mon200:00+27se22320 0.0 101012
03:00+25ese22420 0.0 101011
06:00+26e23500 0.2 101160
09:00+32ese33320 0.6 1011501
12:00+37e33240 0.0 10102649
15:00+36ne442594 0.0 10091879
18:00+28n234580 1.2 100934
21:00+28ene224010 1.2 100914
3 august, tue
tue300:00+26se33410 0.0 100936
03:00+25se33470 0.1 100836
06:00+25ssw22510 0.0 100936
09:00+34s34286 0.0 1009724
12:00+38ssw43195 0.0 10083415
15:00+39wsw231619 0.0 10063982
18:00+33wnw12133298 0.0 1008852
21:00+27n355589 0.2 1009123
4 august, wed
wed400:00+24n5106876 0.3 1010266
03:00+23n3574100 0.4 1011139
06:00+23nne2574100 0.2 1012215
09:00+28nne335160 0.3 1013779
12:00+30n334190 0.0 10131233
15:00+32ene543686 0.0 10121686
18:00+21e477714 24.1 1014170
21:00+23nw11582 24.1 101412